Regional Weather Roundup
Issued by NWS Little Rock, AR

Home | Current Version | Previous Version | Graphics & Text | Print | Product List | Glossary On
Versions: 1 2 3 4 5 6 7 8 9 10 11 12 13 14 15 16 17 18 19 20 21 22 23 24 25 26 27 28 29 30 31 32 33 34 35 36 37 38 39 40 41 42 43 44 45 46 47 48 49 50
000
ASUS44 KLZK 202205
RWRLZK

WEATHER ROUNDUP FOR ARKANSAS
NATIONAL WEATHER SERVICE LITTLE ROCK AR
500 PM CDT SUN AUG 20 2017

NOTE: "FAIR" INDICATES FEW OR NO CLOUDS BELOW 12,000 FEET WITH NO
SIGNIFICANT WEATHER AND/OR OBSTRUCTIONS TO VISIBILITY.

ARZ001-003-010-029-202300-
NORTHWEST ARKANSAS

CITY           SKY/WX    TMP DP  RH WIND       PRES   REMARKS
FAYETTEVILLE   SUNNY     91  74  57 SE7       30.03R HX 100
FORT SMITH     MOSUNNY   94  74  52 SE5       29.97R HX 104
HARRISON       MOSUNNY   89  73  59 E10       30.05R HX  97
BENTONVILLE    SUNNY     91  72  52 S7        30.04R HX  98
ROGERS         MOSUNNY   93  72  50 SW9       30.04R HX 101
SILOAM SPGS    SUNNY     91  72  52 S10       30.02R HX  98
HIGHFILL       SUNNY     89  74  60 S9        30.03R HX  98
SPRINGDALE     MOSUNNY   91  72  52 S12       30.05R HX  98
$$

ARZ004-005-016-202300-
NORTH CENTRAL ARKANSAS

CITY           SKY/WX    TMP DP  RH WIND       PRES   REMARKS
BATESVILLE     CLOUDY    81  70  69 CALM      30.03F
FLIPPIN        SUNNY     88  68  51 E7        30.02S HX  91
MTN HOME       SUNNY     86  73  65 SE9       30.04R HX  93
$$

ARZ040-041-202300-
WEST CENTRAL ARKANSAS

CITY           SKY/WX    TMP DP  RH WIND       PRES   REMARKS
MENA           PTSUNNY   95  73  49 CALM      30.03R HX 105
MOUNT IDA      MOSUNNY   92  70  48 CALM      30.00R HX  97
$$

ARZ009-017-025-026-028-202300-
NORTHEAST ARKANSAS

CITY           SKY/WX    TMP DP  RH WIND       PRES   REMARKS
CORNING        FAIR      88  81  79 VRB5      30.02F HX 105
JONESBORO      CLOUDY    80  76  87 CALM      30.02S HX  86
NEWPORT        CLOUDY    77  71  82 N10       30.02F
WALNUT RIDGE   CLOUDY    79  70  73 CALM      30.03R
BLYTHEVILLE    CLOUDY    84  78  82 NW3       30.03S HX  95
$$

ARZ022-023-033-042-044-202300-
CENTRAL ARKANSAS

CITY           SKY/WX    TMP DP  RH WIND       PRES   REMARKS
LITTLE ROCK    PTSUNNY   94  73  50 SE5       29.99S HX 103
N LITTLE ROCK    N/A     94  74  53 SE6       30.00R HX 104
JACKSONVILLE   SUNNY     96  74  48 CALM      29.99S HX 107
CONWAY           N/A     95  77  55 SE7       29.97S HX 109
SEARCY         MOSUNNY   97  80  58 SE6       30.01S HX 117
HOT SPRINGS    MOSUNNY   94  72  48 S3        30.01R HX 102
RUSSELLVILLE   SUNNY     95  74  50 E3        29.98S HX 105
CLINTON        PTSUNNY   86  73  66 VRB5G16   30.02R HX  93
$$

ARZ036-202300-
EAST ARKANSAS

CITY           SKY/WX    TMP DP  RH WIND       PRES   REMARKS
WEST MEMPHIS   PTSUNNY   85  75  72 E6        30.01S HX  93
$$

ARZ050-053-066-070-073-202300-
SOUTHWEST ARKANSAS

CITY           SKY/WX    TMP DP  RH WIND       PRES   REMARKS
ARKADELPHIA    FAIR      95  77  55 S5        29.99R HX 109
CAMDEN         MOSUNNY   97  77  52 CALM      29.97S HX 112
TEXARKANA      SUNNY     92  74  55 SE5       29.99R HX 101
EL DORADO      MOSUNNY   95  74  50 SE9       30.00R HX 105
DE QUEEN       MOSUNNY   94  75  54 CALM      29.97R HX 105
$$

ARZ056-057-069-202300-
SOUTHEAST ARKANSAS

CITY           SKY/WX    TMP DP  RH WIND       PRES   REMARKS
PINE BLUFF     PTSUNNY   90  74  59 SE12      30.00R HX  99
MONTICELLO     SUNNY     95  74  50 S6        30.00R HX 105

$$





USA.gov is the U.S. government's official web portal to all federal, state and local government web resources and services.